[[{"header":{"parameterUnit":"m.s-1","parameterCategory":1,"la1":30.2991,"la2":30.254,"lo1":-89.0895,"lo2":-89.0444,"dy":0.0017,"dx":0.0017,"nx":28,"ny":28,"refTime":"2023-10-31T21:00:00:Z","depth":0,"parameterNumber":2,"parameterNumberName":"U-component_of_WINDS"},"data":[0,0,0,0,0,0,0,0,0,0,0,0,0,0,0,0,0,0,0,0,0,0,0,0,0,0,0,0,0,0,0,0,0,0,0,0,0,0,0,0,0,0,0,0,0,0,0,0,0,0,0,0,0,0,0,0,0,0,-1.1987,-1.1988,0,-1.2083,-1.2084,-1.2085,-1.2059,-1.2057,-1.2056,-1.2054,-1.2155,-1.2159,-1.2164,0,0,0,0,0,0,0,0,0,0,0,0,0,-1.1781,-1.1785,-1.1987,-1.1988,-1.1989,-1.2083,-1.2084,-1.2086,-1.206,-1.2057,-1.2055,-1.2053,-1.2153,-1.2159,-1.2164,0,0,0,0,0,0,0,0,0,0,0,0,0,-1.1873,-1.1786,-1.1987,-1.1987,-1.1988,-1.2083,-1.2084,-1.2086,-1.206,-1.2057,-1.2054,-1.2052,-1.2152,-1.2158,-1.2165,-1.2265,0,0,-1.2185,-1.2188,0,0,0,0,0,0,0,0,-1.1868,-1.1881,-1.1986,-1.1988,-1.1989,-1.2056,-1.2049,-1.2146,-1.2061,-1.2033,-1.2054,-1.205,-1.2125,-1.2133,-1.2158,-1.227,-1.2274,-1.2186,-1.219,-1.2193,-1.2195,0,0,0,0,0,0,0,-1.1862,-1.1877,-1.2025,-1.1988,-1.1989,-1.1983,-1.1993,-1.2067,-1.2094,-1.2035,-1.2034,-1.2045,-1.2125,-1.2152,-1.216,-1.2275,-1.2186,-1.2192,-1.2196,-1.2199,-1.2474,-1.2477,0,0,0,0,0,0,-1.1854,-1.1871,-1.2022,-1.2028,-1.192,-1.1989,-1.2,-1.2038,-1.2093,-1.2099,-1.2048,-1.2044,-1.2141,-1.2152,-1.2164,-1.2285,-1.2193,-1.2199,-1.2203,-1.247,-1.2474,-1.2478,0,0,0,0,0,0,-1.185,-1.1868,-1.2018,-1.1949,-1.1968,-1.1996,-1.2038,-1.2041,-1.2068,-1.2102,-1.2107,-1.207,-1.214,-1.2154,-1.224,-1.2288,-1.2202,-1.2209,-1.2466,-1.2472,-1.2476,-1.2528,0,0,0,0,0,0,-1.1844,-1.1866,-1.1905,-1.195,-1.1972,-1.2093,-1.2041,-1.2045,-1.2079,-1.2075,-1.2125,-1.213,-1.2138,-1.223,-1.2246,-1.2296,-1.2214,-1.2462,-1.2469,-1.2474,-1.2522,-1.2534,-1.2544,0,0,0,0,0,-1.1837,-1.1916,-1.1907,-1.1925,-1.202,-1.2095,-1.2108,-1.2115,-1.2083,-1.2122,-1.2144,-1.2129,-1.2279,-1.2239,-1.2257,-1.2309,-1.2459,-1.2467,-1.2474,-1.2517,-1.2532,-1.2544,0,0,0,0,0,0,-1.1877,-1.1922,-1.1912,-1.2009,-1.2048,-1.2091,-1.214,-1.213,-1.218,-1.2174,-1.2181,-1.2192,-1.228,-1.2303,-1.2257,-1.2409,-1.2365,-1.2376,-1.2391,-1.2405,-1.2416,-1.241,-1.2219,0,0,0,0,0,-1.1896,-1.1953,-1.199,-1.2071,-1.2091,-1.2112,-1.2145,-1.2147,-1.2189,-1.2206,-1.2234,-1.2276,-1.2332,-1.237,-1.2424,-1.2524,-1.2535,-1.2569,-1.258,-1.2589,-1.2599,-1.2654,-1.267,-1.2502,-1.2502,-1.2502,0,0,-1.1938,-1.197,-1.2006,-1.208,-1.2111,-1.217,-1.2127,-1.2192,-1.2236,-1.2216,-1.2299,-1.232,-1.2367,-1.2461,-1.2503,-1.2482,-1.2648,-1.2598,-1.2605,-1.2611,-1.2664,-1.268,-1.2694,-1.2507,-1.2506,-1.2505,0,0,-1.2046,-1.2075,-1.2146,-1.2177,-1.2224,-1.2237,-1.2254,-1.2298,-1.2312,-1.2394,-1.238,-1.2433,-1.253,-1.2564,-1.2594,-1.2711,-1.2699,-1.2728,-1.2787,-1.2841,-1.2854,-1.2866,-1.2909,-1.2924,-1.2738,-1.2738,-1.2739,0,-1.2093,-1.2181,-1.2184,-1.225,-1.2283,-1.2266,-1.2338,-1.2369,-1.2431,-1.2455,-1.2429,-1.2551,-1.2581,-1.2682,-1.2711,-1.2735,-1.2755,-1.2724,-1.2852,-1.2864,-1.2875,-1.2916,-1.2932,-1.2742,-1.2741,-1.2741,-1.2741,0,-1.2237,-1.2298,-1.235,-1.2409,-1.2448,-1.2517,-1.2531,-1.2569,-1.2567,-1.2583,-1.2667,-1.2702,-1.2762,-1.2786,-1.2785,-1.2887,-1.2873,-1.285,-1.2806,-1.2894,-1.2933,-1.2949,-1.2747,-1.2745,-1.2744,-1.2744,0,0,-1.2375,-1.2434,-1.2453,-1.248,-1.2529,-1.2577,-1.2644,-1.2702,-1.2736,-1.2778,-1.2836,-1.2917,-1.2896,-1.293,-1.2932,-1.2978,-1.307,-1.295,-1.2951,-1.2972,-1.3186,-1.3205,-1.3223,-1.3061,-1.3064,-1.3066,-1.3183,0,-1.2488,-1.2607,-1.2611,-1.2719,-1.2776,-1.2759,-1.2818,-1.2855,-1.287,-1.2921,-1.2938,-1.2996,-1.2963,-1.2983,-1.3028,-1.305,-1.3114,-1.3041,-1.3116,-1.3119,-1.3107,-1.3243,-1.3263,-1.3372,-1.3198,-1.32,-1.3202,0,-1.2636,-1.2683,-1.2797,-1.2837,-1.2861,-1.2914,-1.2967,-1.3016,-1.3056,-1.3064,-1.3101,-1.3096,-1.3165,-1.3116,-1.3212,-1.3162,-1.3193,-1.3207,-1.3212,-1.3221,-1.3168,-1.3258,-1.3406,-1.3423,-1.3226,-1.3224,-1.3222,0,-1.2728,-1.2819,-1.2899,-1.2922,-1.297,-1.3008,-1.303,-1.3067,-1.3102,-1.3148,-1.3171,-1.3225,-1.3255,-1.3297,-1.3306,-1.327,-1.3402,-1.3354,-1.3411,-1.3411,-1.3443,-1.3441,-1.36,-1.3458,-1.3458,-1.3458,-1.3457,0,-1.2855,-1.2926,-1.294,-1.299,-1.3069,-1.3072,-1.315,-1.3169,-1.3202,-1.3255,-1.3243,-1.3293,-1.3301,-1.3353,-1.336,-1.3439,-1.3452,-1.3461,-1.3463,-1.3464,-1.3463,-1.3486,-1.3479,-1.3462,-1.3461,-1.346,-1.3459,0,-1.2972,-1.2984,-1.3071,-1.3108,-1.312,-1.3176,-1.3209,-1.3256,-1.3269,-1.3336,-1.3352,-1.3373,-1.3434,-1.3446,-1.3518,-1.3522,-1.3616,-1.3609,-1.3603,-1.3603,-1.366,-1.3655,-1.3841,-1.3866,-1.3706,-1.3708,-1.3709,0,-1.3054,-1.3108,-1.3151,-1.3185,-1.3209,-1.3264,-1.3299,-1.3303,-1.334,-1.3389,-1.3431,-1.3489,-1.3537,-1.3634,-1.3656,-1.371,-1.3706,-1.3767,-1.3714,-1.3713,-1.3709,-1.3707,-1.3712,-1.3778,-1.378,-1.3781,-1.3783,0,-1.3198,-1.3201,-1.3251,-1.3303,-1.3345,-1.3386,-1.3426,-1.3454,-1.3464,-1.3505,-1.3567,-1.3603,-1.3675,-1.3734,-1.3788,-1.3811,-1.3799,-1.3798,-1.3815,-1.3818,-1.3812,-1.3818,-1.3633,-1.3795,-1.3794,-1.3793,-1.3792,-1.3792,-1.3301,-1.3348,-1.3386,-1.3442,-1.3471,-1.3508,-1.3554,-1.3572,-1.3623,-1.3682,-1.3681,-1.3748,-1.3786,-1.3857,-1.3883,-1.3936,-1.3916,-1.394,-1.3946,-1.3953,-1.3959,-1.3802,-1.3945,-1.3945,-1.3944,-1.3944,-1.3944,0,-1.3446,-1.3469,-1.352,-1.3575,-1.3619,-1.3601,-1.3644,-1.3682,-1.3741,-1.3777,-1.3823,-1.3893,-1.3949,-1.3974,-1.403,-1.4067,-1.4063,-1.4082,-1.408,-1.4086,-1.3972,-1.3953,-1.4084,-1.4084,-1.4084,-1.4084,-1.4084,-1.4084,-1.3527,-1.3606,-1.3613,-1.3706,-1.3728,-1.3793,-1.3819,-1.3853,-1.3881,-1.396,-1.4006,-1.4021,-1.4053,-1.411,-1.4161,-1.4167,-1.4189,-1.4211,-1.4214,-1.4108,-1.4094,-1.4081,-1.4063,-1.4215,-1.4215,-1.4324,-1.4325,-1.4326]},{"header":{"parameterUnit":"m.s-1","parameterCategory":1,"la1":30.2991,"la2":30.254,"lo1":-89.0895,"lo2":-89.0444,"dy":0.0017,"dx":0.0017,"nx":28,"ny":28,"refTime":"2023-10-31T21:00:00:Z","depth":0,"parameterNumber":3,"parameterNumberName":"V-component_of_WINDS"},"data":[0,0,0,0,0,0,0,0,0,0,0,0,0,0,0,0,0,0,0,0,0,0,0,0,0,0,0,0,0,0,0,0,0,0,0,0,0,0,0,0,0,0,0,0,0,0,0,0,0,0,0,0,0,0,0,0,0,0,-9.7769,-9.7771,0,-9.7959,-9.7961,-9.7963,-9.7848,-9.7842,-9.7837,-9.7832,-9.8018,-9.8027,-9.8037,0,0,0,0,0,0,0,0,0,0,0,0,0,-9.7299,-9.7308,-9.7769,-9.7771,-9.7774,-9.7958,-9.7961,-9.7963,-9.7849,-9.7842,-9.7835,-9.7829,-9.8014,-9.8026,-9.8038,0,0,0,0,0,0,0,0,0,0,0,0,0,-9.7497,-9.7311,-9.7768,-9.7739,-9.7738,-9.7958,-9.7961,-9.7964,-9.785,-9.7842,-9.7834,-9.7826,-9.801,-9.8025,-9.804,-9.8297,0,0,-9.8086,-9.8092,0,0,0,0,0,0,0,0,-9.7486,-9.7514,-9.7741,-9.7741,-9.7741,-9.7871,-9.7863,-9.8075,-9.7852,-9.7807,-9.7831,-9.7822,-9.7975,-9.7992,-9.8046,-9.8305,-9.8313,-9.8087,-9.8096,-9.8103,-9.8107,0,0,0,0,0,0,0,-9.7472,-9.7505,-9.7843,-9.7744,-9.7744,-9.7713,-9.7732,-9.7903,-9.7934,-9.781,-9.7803,-9.7827,-9.7973,-9.8031,-9.8049,-9.8316,-9.8087,-9.81,-9.8109,-9.8115,-9.8795,-9.8804,0,0,0,0,0,0,-9.7462,-9.7495,-9.7837,-9.7849,-9.7591,-9.7728,-9.775,-9.7837,-9.7932,-9.7939,-9.7834,-9.7821,-9.801,-9.8032,-9.8055,-9.8363,-9.8103,-9.8117,-9.8125,-9.8786,-9.8797,-9.8807,0,0,0,0,0,0,-9.7452,-9.7494,-9.783,-9.767,-9.7711,-9.7745,-9.7845,-9.7846,-9.7904,-9.795,-9.7954,-9.7888,-9.8004,-9.8034,-9.8238,-9.8367,-9.8124,-9.8137,-9.8776,-9.879,-9.8802,-9.898,0,0,0,0,0,0,-9.7439,-9.7491,-9.7591,-9.7673,-9.772,-9.8013,-9.7853,-9.7855,-9.7931,-9.7916,-9.8002,-9.8008,-9.8,-9.8216,-9.8253,-9.8384,-9.8149,-9.8764,-9.8782,-9.8798,-9.8962,-9.8997,-9.9028,0,0,0,0,0,-9.7423,-9.7632,-9.7597,-9.7639,-9.7846,-9.802,-9.8046,-9.8035,-9.7942,-9.8042,-9.8071,-9.8006,-9.8347,-9.8238,-9.8279,-9.8416,-9.8756,-9.8777,-9.8797,-9.8948,-9.8991,-9.9027,0,0,0,0,0,0,-9.756,-9.7642,-9.7604,-9.7846,-9.7928,-9.8001,-9.8126,-9.8081,-9.8188,-9.8169,-9.8147,-9.8168,-9.8381,-9.8418,-9.8295,-9.8669,-9.8537,-9.8566,-9.8638,-9.8679,-9.8711,-9.8697,-9.8162,0,0,0,0,0,-9.762,-9.7757,-9.7819,-9.8027,-9.807,-9.8092,-9.8167,-9.8151,-9.8234,-9.8267,-9.8311,-9.8391,-9.8516,-9.8599,-9.8717,-9.8967,-9.8983,-9.9081,-9.9113,-9.914,-9.9166,-9.93,-9.9344,-9.8874,-9.8874,-9.8873,0,0,-9.7742,-9.7803,-9.7891,-9.8056,-9.8117,-9.8258,-9.8121,-9.8275,-9.8379,-9.8289,-9.8486,-9.8521,-9.8609,-9.8837,-9.8939,-9.8874,-9.9299,-9.9166,-9.9187,-9.9198,-9.9326,-9.937,-9.941,-9.8888,-9.8885,-9.8883,0,0,-9.8037,-9.8098,-9.8278,-9.8342,-9.8438,-9.8451,-9.8494,-9.8575,-9.8596,-9.8793,-9.8729,-9.885,-9.9066,-9.9132,-9.9193,-9.9513,-9.9457,-9.9552,-9.9723,-9.9854,-9.9891,-9.9924,-10.0038,-10.0079,-9.9577,-9.9578,-9.9578,0,-9.8176,-9.8389,-9.8375,-9.8536,-9.8609,-9.8537,-9.8718,-9.878,-9.8908,-9.896,-9.8885,-9.9156,-9.921,-9.9452,-9.9531,-9.9583,-9.963,-9.9542,-9.9887,-9.992,-9.995,-10.0059,-10.0102,-9.9589,-9.9587,-9.9586,-9.9585,0,-9.8555,-9.8704,-9.8837,-9.8966,-9.9054,-9.9224,-9.9233,-9.9324,-9.9301,-9.9321,-9.9522,-9.9584,-9.9713,-9.9769,-9.9746,-10.0009,-9.9965,-9.989,-9.9756,-10.0006,-10.0108,-10.015,-9.9604,-9.96,-9.9597,-9.9594,0,0,-9.8943,-9.9063,-9.9112,-9.917,-9.927,-9.9383,-9.9548,-9.9678,-9.9756,-9.9846,-9.9983,-10.0168,-10.01,-10.017,-10.0153,-10.0268,-10.0518,-10.0178,-10.018,-10.024,-10.0811,-10.0868,-10.0917,-10.0481,-10.0489,-10.0495,-10.0804,0,-9.9245,-9.9538,-9.953,-9.9801,-9.9937,-9.987,-10.0013,-10.0089,-10.0112,-10.0229,-10.0252,-10.0384,-10.0283,-10.0325,-10.0436,-10.0465,-10.0633,-10.0442,-10.0607,-10.0613,-10.0588,-10.097,-10.1031,-10.1319,-10.0843,-10.085,-10.0855,0,-9.9637,-9.9744,-10.003,-10.011,-10.0167,-10.0297,-10.0415,-10.0528,-10.0611,-10.0619,-10.0699,-10.0664,-10.0828,-10.0691,-10.0917,-10.0787,-10.0854,-10.0878,-10.0889,-10.0904,-10.075,-10.0996,-10.141,-10.1454,-10.0917,-10.0912,-10.0908,0,-9.9892,-10.0107,-10.0306,-10.0357,-10.0456,-10.0549,-10.0594,-10.0669,-10.0748,-10.0849,-10.0899,-10.1018,-10.1083,-10.1174,-10.1171,-10.1071,-10.1401,-10.1262,-10.1411,-10.1411,-10.1484,-10.1479,-10.1916,-10.1526,-10.1525,-10.1524,-10.1524,0,-10.023,-10.0408,-10.0422,-10.0545,-10.0741,-10.0728,-10.0922,-10.0957,-10.1025,-10.1151,-10.1098,-10.1217,-10.1206,-10.1325,-10.1323,-10.1511,-10.154,-10.155,-10.1548,-10.1556,-10.1555,-10.1599,-10.158,-10.1536,-10.1533,-10.1531,-10.1529,0,-10.0549,-10.0566,-10.0778,-10.0855,-10.0878,-10.102,-10.1084,-10.1199,-10.1217,-10.1377,-10.1414,-10.1442,-10.158,-10.1586,-10.1743,-10.1741,-10.197,-10.1945,-10.1944,-10.1939,-10.2088,-10.2074,-10.2568,-10.2632,-10.2201,-10.2205,-10.2208,0,-10.0764,-10.09,-10.0992,-10.1075,-10.1126,-10.1259,-10.1339,-10.1331,-10.1416,-10.1522,-10.1624,-10.1757,-10.1864,-10.2086,-10.2119,-10.2238,-10.2216,-10.2381,-10.2233,-10.2237,-10.2219,-10.2211,-10.2225,-10.241,-10.2414,-10.2418,-10.2422,0,-10.1145,-10.1147,-10.1267,-10.139,-10.1488,-10.1584,-10.1673,-10.1742,-10.1744,-10.1842,-10.1984,-10.2067,-10.2229,-10.2362,-10.2479,-10.2521,-10.2472,-10.2468,-10.2509,-10.2519,-10.2513,-10.2518,-10.2023,-10.2457,-10.2453,-10.245,-10.2449,-10.2447,-10.1419,-10.1537,-10.1621,-10.1755,-10.1822,-10.1907,-10.2019,-10.2052,-10.2171,-10.2305,-10.2292,-10.2449,-10.2527,-10.268,-10.2732,-10.2853,-10.2796,-10.2855,-10.287,-10.2885,-10.2901,-10.2493,-10.2874,-10.2873,-10.2872,-10.2871,-10.287,0,-10.1798,-10.1849,-10.1973,-10.2101,-10.2207,-10.2154,-10.2249,-10.234,-10.2481,-10.2559,-10.2666,-10.2828,-10.2957,-10.3,-10.3123,-10.3212,-10.3192,-10.3245,-10.3238,-10.3249,-10.2945,-10.2898,-10.3258,-10.3258,-10.3258,-10.3258,-10.3258,-10.3258,-10.2007,-10.2204,-10.2216,-10.2444,-10.2492,-10.2649,-10.2708,-10.2785,-10.2848,-10.3033,-10.314,-10.3168,-10.3232,-10.336,-10.3475,-10.3484,-10.3532,-10.3594,-10.3594,-10.3309,-10.327,-10.3233,-10.3189,-10.3604,-10.3605,-10.3887,-10.389,-10.3892]}]]